time_stamp(utc),avg(mph),gust(mph),direction(deg),12m_air_temp(f),sonic_u(cm/s),sonic_v(cm/s),sonic_w(cm/s),pressure,2m_air_temp(f),pyranometer(W/m^2)
"2016-10-12 00:02:20+00",7.9,8.9,,59.2,352,-46,7,1028.52,57,0
"2016-10-12 00:07:20+00",10.6,12.6,,59.4,449,-136,4,1028.53,57.1,0
"2016-10-12 00:12:20+00",9.2,10.2,,59.5,393,-111,1,1028.46,57.2,0
"2016-10-12 00:17:20+00",9.4,11.4,,59.5,391,-121,-5,1028.52,57.2,0
"2016-10-12 00:22:20+00",9.5,10.5,,59.4,403,-117,5,1028.54,57.3,0
"2016-10-12 00:27:20+00",9.5,11.5,,59.4,398,-127,1,1028.55,57.3,0
"2016-10-12 00:32:20+00",9.0,10.0,,59.3,368,-145,6,1028.5,57.4,0
"2016-10-12 00:37:20+00",8.7,9.7,,59.6,361,-142,6,1028.61,57.4,0
"2016-10-12 00:42:20+00",9.1,10.1,,59.7,375,-137,4,1028.59,57.4,0
"2016-10-12 00:47:20+00",9.8,10.8,,59.9,412,-150,2,1028.59,57.5,0
"2016-10-12 00:52:20+00",8.7,9.7,,59.7,364,-106,4,1028.59,57.7,0
"2016-10-12 00:57:20+00",8.2,10.2,,59.6,348,-84,8,1028.57,57.6,0
"2016-10-12 01:02:20+00",10.4,11.4,,59.5,431,-146,6,1028.64,57.5,0
"2016-10-12 01:07:20+00",9.3,10.3,,60,396,-112,8,1028.53,57.6,0
"2016-10-12 01:12:20+00",9.0,12.0,,59.7,387,-97,16,1028.58,57.7,0
"2016-10-12 01:17:20+00",8.4,9.4,,59.8,360,-104,5,1028.62,57.7,0
"2016-10-12 01:22:20+00",9.0,10.0,,59.7,349,-178,3,1028.73,57.6,0
"2016-10-12 01:27:20+00",7.9,8.9,,59.6,306,-162,8,1028.7,57.5,0
"2016-10-12 01:32:20+00",9.6,10.6,,59.7,386,-183,2,1028.65,57.4,0
"2016-10-12 01:37:20+00",10.3,12.3,,59.9,381,-240,-5,1028.69,57.4,0
"2016-10-12 01:42:20+00",9.1,10.1,,60.2,377,-137,10,1028.58,57.6,0
"2016-10-12 01:47:20+00",10.0,12.0,,59.9,429,-99,12,1028.52,57.5,0
"2016-10-12 01:52:20+00",9.0,10.0,,59.5,384,-94,-5,1028.43,57.4,0
"2016-10-12 01:57:20+00",9.9,10.9,,59.8,425,-116,5,1028.4,57.5,0
"2016-10-12 02:02:20+00",8.3,10.3,,59.8,348,-130,0,1028.45,57.4,0
"2016-10-12 02:07:20+00",6.5,7.5,,59.6,274,-88,1,1028.5,57.1,0
"2016-10-12 02:12:20+00",8.8,9.8,,59.8,370,-118,4,1028.48,57,0
"2016-10-12 02:17:20+00",8.1,9.1,,59.8,353,-50,14,1028.47,56.9,0
"2016-10-12 02:22:20+00",8.2,8.2,,60.2,350,-93,11,1028.4,56.8,0
"2016-10-12 02:27:20+00",6.6,7.6,,60.6,270,-98,5,1028.42,56.8,0
"2016-10-12 02:32:20+00",6.2,6.2,,60.7,260,-75,5,1028.33,56.6,0
"2016-10-12 02:37:20+00",5.7,6.7,,60.4,238,-63,13,1028.45,56.4,0
"2016-10-12 02:42:20+00",7.5,7.5,,60,325,-26,18,1028.25,56.2,0
"2016-10-12 02:47:20+00",7.9,8.9,,60.1,334,-83,7,1028.31,56,0
"2016-10-12 02:52:20+00",8.9,9.9,,60.3,365,-143,12,1028.16,56.1,0
"2016-10-12 02:57:20+00",9.0,10.0,,59.9,338,-187,14,1028.24,56.2,0
"2016-10-12 03:02:20+00",8.2,9.2,,60,333,-144,5,1028.25,56.6,0
"2016-10-12 03:07:20+00",8.1,9.1,,60.2,295,-199,5,1028.3,56.9,0
"2016-10-12 03:12:20+00",9.9,10.9,,60.1,364,-234,4,1028.23,57.2,0
"2016-10-12 03:17:20+00",9.2,10.2,,60.6,351,-191,5,1028.28,57.5,0
"2016-10-12 03:22:20+00",11.3,12.3,,60.5,471,-177,1,1028.12,57.6,0
"2016-10-12 03:27:20+00",10.1,11.1,,60.2,406,-183,7,1028.15,57.8,0
"2016-10-12 03:32:20+00",8.9,8.9,,60.3,357,-153,5,1028.16,57.9,0
"2016-10-12 03:37:20+00",11.4,12.4,,60.8,448,-230,1,1028.14,58.1,0
"2016-10-12 03:42:20+00",10.9,11.9,,60.5,406,-253,-9,1028.13,58.2,0
"2016-10-12 03:47:20+00",8.7,9.7,,60.4,274,-256,-2,1028.17,58.3,0
"2016-10-12 03:52:20+00",9.2,11.2,,60.3,227,-328,-7,1028.19,58.2,0
"2016-10-12 03:57:20+00",9.9,10.9,,60.5,339,-270,1,1028.16,58.2,0
"2016-10-12 04:02:20+00",8.6,9.6,,60.3,206,-315,-6,1028.07,58.3,0
"2016-10-12 04:07:20+00",8.2,9.2,,60.5,218,-279,-4,1027.96,58.1,0
"2016-10-12 04:12:20+00",8.8,9.8,,60.5,282,-266,-1,1027.9,57.8,0
"2016-10-12 04:17:20+00",7.7,8.7,,60.4,273,-195,5,1027.92,57.5,0
"2016-10-12 04:22:20+00",9.1,10.1,,60.5,270,-280,0,1027.89,57.3,0
"2016-10-12 04:27:20+00",8.4,9.4,,60.6,280,-229,-40,1027.82,57.5,0
"2016-10-12 04:32:20+00",7.7,8.7,,60.7,222,-243,0,1027.78,57.5,0
"2016-10-12 04:37:20+00",7.0,8.0,,60.4,147,-267,-1,1027.74,57.5,0
"2016-10-12 04:42:20+00",8.4,9.4,,60.3,198,-297,-3,1027.75,57.5,0
"2016-10-12 04:47:20+00",6.2,8.2,,60.1,134,-217,3,1027.72,57.4,0
"2016-10-12 04:52:20+00",6.9,7.9,,60.3,193,-227,-3,1027.64,57.2,0
"2016-10-12 04:57:20+00",5.4,6.4,,60.4,141,-176,-2,1027.71,57.1,0
"2016-10-12 05:02:20+00",7.3,8.3,,60.7,178,-259,-5,1027.71,57.5,0
"2016-10-12 05:07:20+00",8.1,9.1,,60.8,238,-257,-3,1027.67,57.8,0
"2016-10-12 05:12:20+00",6.2,6.2,,60.8,154,-210,-4,1027.71,58,0
"2016-10-12 05:17:20+00",5.7,6.7,,61,103,-219,-5,1027.65,58.1,0
"2016-10-12 05:22:20+00",6.8,8.8,,60.7,137,-253,0,1027.64,58.5,0
"2016-10-12 05:27:20+00",7.7,9.7,,60.7,100,-307,-9,1027.67,58.7,0
"2016-10-12 05:32:20+00",6.9,7.9,,60.7,163,-250,-4,1027.66,58.9,0
"2016-10-12 05:37:20+00",6.8,7.8,,60.5,220,-186,1,1027.77,58.7,0
"2016-10-12 05:42:20+00",7.9,8.9,,60.7,231,-251,3,1027.78,58.5,0
"2016-10-12 05:47:20+00",5.6,6.6,,60.9,113,-202,14,1027.81,58.5,0
"2016-10-12 05:52:20+00",5.6,6.6,,60.8,106,-212,-6,1027.72,58.3,0
"2016-10-12 05:57:20+00",4.9,5.9,,60.5,96,-174,-8,1027.64,58.2,0
"2016-10-12 06:02:20+00",5.3,6.3,,60.6,101,-195,-2,1027.59,58.2,0
"2016-10-12 06:07:20+00",5.0,6.0,,60.5,45,-206,-6,1027.63,58.1,0
"2016-10-12 06:12:20+00",6.0,7.0,,60.9,10,-249,-3,1027.67,58.2,0
"2016-10-12 06:17:20+00",5.8,5.8,,61,42,-241,-6,1027.71,58.7,0
"2016-10-12 06:22:20+00",4.5,5.5,,61.1,22,-175,7,1027.64,59,0
"2016-10-12 06:27:20+00",2.9,3.9,,60.5,-15,-114,18,1027.58,59,0
"2016-10-12 06:32:20+00",1.9,2.9,,59.9,-59,18,-4,1027.6,58.7,0
"2016-10-12 06:37:20+00",3.2,4.2,,59.1,-84,97,5,1027.52,58.3,0
"2016-10-12 06:42:20+00",3.8,3.8,,58.3,-104,114,-1,1027.41,57.9,0
"2016-10-12 06:47:20+00",2.8,3.8,,58.5,-88,73,21,1027.49,57.3,0
"2016-10-12 06:52:20+00",4.0,5.0,,58.3,-107,127,3,1027.41,56.8,0
"2016-10-12 06:57:20+00",4.7,4.7,,57.7,-126,153,8,1027.36,56.4,0
"2016-10-12 07:02:20+00",5.2,5.2,,57.6,-159,159,15,1027.28,56,0
"2016-10-12 07:07:20+00",3.7,4.7,,57.8,-96,116,3,1027.25,55.5,0
"2016-10-12 07:12:20+00",4.0,4.0,,58,-111,123,8,1027.29,55.3,0
"2016-10-12 07:17:20+00",4.4,4.4,,57.6,-28,176,2,1027.27,55,0
"2016-10-12 07:22:20+00",4.7,4.7,,57.1,-58,182,-2,1027.33,54.6,0
"2016-10-12 07:27:20+00",4.8,5.8,,57.7,-29,194,4,1027.39,54.4,0
"2016-10-12 07:32:20+00",4.4,5.4,,57.6,-2,175,0,1027.37,54.4,0
"2016-10-12 07:37:20+00",5.9,5.9,,57.6,45,234,3,1027.4,54.3,0
"2016-10-12 07:42:20+00",6.4,7.4,,57,3,265,4,1027.41,54.3,0
"2016-10-12 07:47:20+00",6.5,7.5,,56.4,82,246,0,1027.41,54.3,0
"2016-10-12 07:52:20+00",6.8,7.8,,56.1,15,280,7,1027.33,54.2,0
"2016-10-12 07:57:20+00",4.7,4.7,,55.8,23,194,4,1027.39,54.1,0
"2016-10-12 08:02:20+00",4.9,4.9,,55.5,-5,202,6,1027.36,54,0
"2016-10-12 08:07:20+00",5.1,6.1,,55.3,-3,209,4,1027.35,53.9,0
"2016-10-12 08:12:20+00",5.2,6.2,,55.3,-5,216,3,1027.24,53.9,0
"2016-10-12 08:17:20+00",5.9,5.9,,55.5,-4,244,10,1027.32,53.8,0
"2016-10-12 08:22:20+00",5.8,6.8,,55.4,52,237,1,1027.25,53.7,0
"2016-10-12 08:27:20+00",5.5,6.5,,55.5,52,218,4,1027.25,53.5,0
"2016-10-12 08:32:20+00",5.5,6.5,,55.6,47,221,7,1027.39,53.5,0
"2016-10-12 08:37:20+00",5.6,6.6,,55.7,0,230,5,1027.36,53.4,0
"2016-10-12 08:42:20+00",5.7,5.7,,55.6,-1,234,7,1027.46,53.5,0
"2016-10-12 08:47:20+00",6.7,6.7,,55.7,13,281,3,1027.31,53.3,0
"2016-10-12 08:52:20+00",7.2,7.2,,55.9,-16,302,13,1027.39,53.2,0
"2016-10-12 08:57:20+00",6.3,7.3,,55.9,-55,259,7,1027.32,53.2,0
"2016-10-12 09:02:20+00",7.8,8.8,,55.8,-72,330,11,1027.27,53.1,0
"2016-10-12 09:07:20+00",5.0,6.0,,55.3,171,116,5,1027.31,52.9,0
"2016-10-12 09:12:20+00",5.8,5.8,,54.8,30,239,1,1027.26,52.7,0
"2016-10-12 09:17:20+00",6.6,6.6,,55.1,2,271,0,1027.39,52.5,0
"2016-10-12 09:22:20+00",7.7,7.7,,55.4,-22,327,16,1027.34,52.3,0
"2016-10-12 09:27:20+00",7.1,7.1,,54.8,90,272,-5,1027.41,52.1,0
"2016-10-12 09:32:20+00",7.8,8.8,,55.1,79,316,4,1027.47,52.1,0
"2016-10-12 09:37:20+00",7.4,8.4,,54.6,38,308,2,1027.38,52,0
"2016-10-12 09:42:20+00",6.8,6.8,,54.4,98,251,-3,1027.33,51.9,0
"2016-10-12 09:47:20+00",6.5,7.5,,54.7,103,242,6,1027.34,52,0
"2016-10-12 09:52:20+00",5.9,6.9,,54.8,222,119,8,1027.27,52,0
"2016-10-12 09:57:20+00",5.5,6.5,,55,138,162,4,1027.28,52.3,0
"2016-10-12 10:02:20+00",6.3,6.3,,55.2,149,207,5,1027.17,52.4,0
"2016-10-12 10:07:20+00",6.2,6.2,,55.4,143,215,6,1027.12,52.5,0
"2016-10-12 10:12:20+00",6.1,6.1,,55.4,146,194,10,1026.99,52.4,0
"2016-10-12 10:17:20+00",5.8,5.8,,55.3,151,156,1,1027.02,52.3,0
"2016-10-12 10:22:20+00",6.1,6.1,,55.4,157,168,1,1027.06,52.4,0
"2016-10-12 10:27:20+00",6.4,7.4,,55.6,163,183,8,1027.04,52.4,0
"2016-10-12 10:32:20+00",6.4,6.4,,56.1,164,176,3,1026.94,52.7,0
"2016-10-12 10:37:20+00",6.8,6.8,,56.2,230,175,13,1026.94,52.7,0
"2016-10-12 10:42:20+00",6.9,7.9,,56.5,213,185,10,1026.86,52.9,0
"2016-10-12 10:47:20+00",6.2,6.2,,56.5,198,160,9,1026.79,53,0
"2016-10-12 10:52:20+00",6.4,6.4,,56.5,170,176,5,1026.73,53,0
"2016-10-12 10:57:20+00",7.4,8.4,,56.5,181,248,11,1026.79,53,0
"2016-10-12 11:02:20+00",6.5,7.5,,56.4,161,201,7,1026.8,53.1,0
"2016-10-12 11:07:20+00",6.0,6.0,,56.2,148,171,5,1026.82,52.9,0
"2016-10-12 11:12:20+00",7.3,7.3,,56.1,183,215,9,1026.77,52.8,0
"2016-10-12 11:17:20+00",7.4,7.4,,56.2,185,217,6,1026.71,52.7,0
"2016-10-12 11:22:20+00",7.4,7.4,,56.3,182,228,7,1026.78,52.8,0
"2016-10-12 11:27:20+00",7.1,7.1,,56.3,176,212,5,1026.71,53,0
"2016-10-12 11:32:20+00",6.8,6.8,,56.4,174,189,4,1026.74,53.2,0
"2016-10-12 11:37:20+00",7.4,7.4,,56.4,190,207,3,1026.76,53.6,6.5
"2016-10-12 11:42:20+00",7.2,7.2,,56.8,220,194,13,1026.7,54,10.9
"2016-10-12 11:47:20+00",6.8,6.8,,57.1,175,191,5,1026.73,54.8,32.7
"2016-10-12 11:52:20+00",5.3,6.3,,56.5,40,215,1,1026.79,55,39.2
"2016-10-12 11:57:20+00",5.3,5.3,,56.3,31,214,3,1026.8,55.3,49.2
"2016-10-12 12:02:20+00",4.7,4.7,,56.4,46,182,4,1026.81,56,56.5
"2016-10-12 12:07:20+00",2.8,3.8,,56.7,35,95,3,1026.84,56.5,57.3
"2016-10-12 12:12:20+00",3.1,5.1,,57.4,25,94,31,1026.89,57.3,66.8
"2016-10-12 12:17:20+00",3.6,3.6,,57,-16,142,2,1026.9,57.9,40.2
"2016-10-12 12:22:20+00",4.3,4.3,,56.9,8,172,1,1026.87,57.9,61.8
"2016-10-12 12:27:20+00",3.0,4.0,,57.8,38,104,7,1026.84,58.1,98.9
"2016-10-12 12:32:20+00",3.5,4.5,,59.2,83,105,2,1026.81,59.1,108.5
"2016-10-12 12:37:20+00",4.6,6.6,,59.9,150,83,-3,1026.83,60.1,116.6
"2016-10-12 12:42:20+00",0.9,1.9,,60.5,-9,24,5,1026.75,61.2,126.3
"2016-10-12 12:47:20+00",4.4,7.4,,60.8,170,4,21,1026.78,62.2,136.7
"2016-10-12 12:52:20+00",6.1,7.1,,62.1,258,-47,15,1026.83,62.9,146.5
"2016-10-12 12:57:20+00",7.2,8.2,,62.4,308,-67,14,1026.78,63.2,157.1
"2016-10-12 13:02:20+00",7.8,9.8,,62.4,330,-75,1,1026.74,63.4,165.4
"2016-10-12 13:07:20+00",5.6,6.6,,62.7,232,-50,11,1026.78,63.7,175.4
"2016-10-12 13:12:20+00",5.4,6.4,,62.8,231,-10,42,1026.84,64.5,184.4
"2016-10-12 13:17:20+00",7.3,8.3,,62.7,321,0,11,1026.87,64.8,195.7
"2016-10-12 13:22:20+00",6.4,7.4,,62.9,191,-190,-1,1026.86,64.8,204.1
"2016-10-12 13:27:20+00",7.2,9.2,,63,257,-173,21,1026.86,65.1,211.5
"2016-10-12 13:32:20+00",6.7,7.7,,63,263,-119,-3,1026.92,65.3,214.6
"2016-10-12 13:37:20+00",8.1,9.1,,63,296,-178,-15,1026.9,65.2,218
"2016-10-12 13:42:20+00",6.4,7.4,,63,257,-105,14,1026.86,65.5,228.3
"2016-10-12 13:47:20+00",7.1,8.1,,63.1,315,-47,-8,1026.91,65.3,236.2
"2016-10-12 13:52:20+00",8.0,9.0,,63.1,346,-31,-2,1026.83,65.4,239.9
"2016-10-12 13:57:20+00",7.6,8.6,,63,324,-81,-6,1026.84,65.2,249.8
"2016-10-12 14:02:20+00",9.5,10.5,,63.1,412,-74,3,1026.81,65.2,260.8
"2016-10-12 14:07:20+00",7.8,8.8,,63.1,340,-59,27,1026.81,65,241.5
"2016-10-12 14:12:20+00",7.1,8.1,,63.2,273,-132,-4,1026.81,65.2,264.7
"2016-10-12 14:17:20+00",8.8,9.8,,63.3,369,-118,6,1026.81,65.4,276.2
"2016-10-12 14:22:20+00",9.0,11.0,,63.5,390,-105,45,1026.72,65.9,279.2
"2016-10-12 14:27:20+00",8.9,11.9,,63.4,377,-76,21,1026.86,65.7,285.3
"2016-10-12 14:32:20+00",7.3,9.3,,63.6,304,-100,22,1026.89,66,288.9
"2016-10-12 14:37:20+00",7.7,8.7,,63.6,325,-82,8,1026.84,66.4,294.9
"2016-10-12 14:42:20+00",8.3,10.3,,63.7,356,-87,27,1026.78,66.4,300.3
"2016-10-12 14:47:20+00",9.4,11.4,,63.4,420,35,32,1026.74,66.6,308.8
"2016-10-12 14:52:20+00",8.0,9.0,,63.3,323,-147,16,1026.8,66.1,315.1
"2016-10-12 14:57:20+00",9.0,11.0,,63.5,396,20,22,1026.72,66.1,318.7
"2016-10-12 15:02:20+00",8.5,9.5,,63.6,370,-7,37,1026.68,66.3,328.2
"2016-10-12 15:07:20+00",8.7,10.7,,63.4,380,-28,-9,1026.58,66.2,335.2
"2016-10-12 15:12:20+00",9.4,10.4,,63.4,411,-24,-1,1026.47,66.5,334.7
"2016-10-12 15:17:20+00",7.2,8.2,,63.4,307,-74,-15,1026.45,66.1,325.9
"2016-10-12 15:22:20+00",8.9,9.9,,63.4,375,-87,0,1026.41,66,342.6
"2016-10-12 15:27:20+00",9.5,11.5,,63.2,415,21,23,1026.42,66.2,346.6
"2016-10-12 15:32:20+00",8.2,9.2,,63.4,357,36,39,1026.37,66.5,356.4
"2016-10-12 15:37:20+00",6.5,7.5,,63.3,283,28,1,1026.34,66.7,368.9
"2016-10-12 15:42:20+00",8.6,10.6,,63.4,355,-135,-3,1026.21,66.6,365.8
"2016-10-12 15:47:20+00",6.7,7.7,,63.4,287,-93,-7,1026.15,66.5,364.7
"2016-10-12 15:52:20+00",8.2,10.2,,63.5,300,-179,3,1026.24,67,368.3
"2016-10-12 15:57:20+00",6.6,8.6,,63.5,272,-86,-10,1026.17,66.7,378.9
"2016-10-12 16:02:20+00",7.9,8.9,,63.7,325,-90,20,1026.13,67.1,386
"2016-10-12 16:07:20+00",9.5,10.5,,63.5,417,1,-19,1026.05,67.1,378.9
"2016-10-12 16:12:20+00",7.6,8.6,,63.6,338,3,11,1026.03,67.1,328.7
"2016-10-12 16:17:20+00",8.0,10.0,,63.6,347,52,11,1026.09,66.8,372.3
"2016-10-12 16:22:20+00",5.4,6.4,,63.7,226,11,33,1026.11,67.3,364.6
"2016-10-12 16:27:20+00",9.0,11.0,,63.8,397,-1,-15,1026.06,67.5,388.9
"2016-10-12 16:32:20+00",5.2,7.2,,63.7,209,46,19,1025.96,67.4,374.2
"2016-10-12 16:37:20+00",6.6,8.6,,63.5,280,-49,-3,1025.94,67.3,387.1
"2016-10-12 16:42:20+00",6.4,7.4,,63.5,276,-30,-15,1025.99,67.2,399.1
"2016-10-12 16:47:20+00",7.7,9.7,,63.5,318,108,1,1025.93,67.6,408.1
"2016-10-12 16:52:20+00",3.9,4.9,,63.7,140,-93,-2,1025.76,68,390
"2016-10-12 16:57:20+00",7.8,9.8,,63.7,328,91,-2,1025.74,68,411.7
"2016-10-12 17:02:20+00",4.0,6.0,,63.7,151,-44,9,1025.65,67.9,395.4
"2016-10-12 17:07:20+00",5.9,8.9,,64,249,-22,-24,1025.59,68,398.5
"2016-10-12 17:12:20+00",8.9,10.9,,64.1,354,-163,16,1025.49,67.9,365.5
"2016-10-12 17:17:20+00",6.0,7.0,,63.8,254,-15,1,1025.38,67.7,383.8
"2016-10-12 17:22:20+00",7.6,8.6,,63.9,335,39,13,1025.36,68,389.4
"2016-10-12 17:27:20+00",6.5,7.5,,63.7,264,81,25,1025.33,67.4,330.8
"2016-10-12 17:32:20+00",8.8,9.8,,63.7,387,-25,-9,1025.24,67.3,196.2
"2016-10-12 17:37:20+00",7.8,9.8,,63.5,321,-120,2,1025.24,66.6,96.4
"2016-10-12 17:42:20+00",5.9,6.9,,63.5,238,-77,39,1025.18,65.8,130.2
"2016-10-12 17:47:20+00",9.1,11.1,,63.6,341,-201,-3,1025.17,65.7,221.7
"2016-10-12 17:52:20+00",5.1,6.1,,63.6,166,-140,16,1025.05,65.5,179.1
"2016-10-12 17:57:20+00",8.7,10.7,,63.7,353,-133,-21,1024.93,65.9,243
"2016-10-12 18:02:20+00",7.1,8.1,,63.5,309,-16,-14,1024.88,65.7,179.6
"2016-10-12 18:07:20+00",7.0,8.0,,63.7,282,-108,13,1024.86,65.8,116
"2016-10-12 18:12:20+00",6.9,10.9,,63.9,291,-83,-5,1024.71,66.4,351.6
"2016-10-12 18:17:20+00",3.5,5.5,,63.6,133,-42,-15,1024.65,66.7,213.8
"2016-10-12 18:22:20+00",4.6,5.6,,63.6,151,-118,-6,1024.54,66.5,226.9
"2016-10-12 18:27:20+00",8.8,10.8,,63.6,392,-21,31,1024.61,66.1,248.5
"2016-10-12 18:32:20+00",5.2,6.2,,63.6,216,50,19,1024.57,66.3,209.1
"2016-10-12 18:37:20+00",6.7,8.7,,63.5,290,38,21,1024.47,66.2,219.8
"2016-10-12 18:42:20+00",8.3,10.3,,63.4,359,44,5,1024.34,66,293.5
"2016-10-12 18:47:20+00",8.1,9.1,,63.7,338,-103,-4,1024.31,66.2,328.6
"2016-10-12 18:52:20+00",8.3,10.3,,63.6,362,62,9,1024.28,66.4,314
"2016-10-12 18:57:20+00",7.8,10.8,,63.5,347,9,21,1024.24,66.7,329.1
"2016-10-12 19:02:20+00",7.5,9.5,,63.6,329,36,20,1024.15,66.8,314.1
"2016-10-12 19:07:20+00",7.9,8.9,,63.8,322,-114,-2,1024.09,66.8,282.4
"2016-10-12 19:12:20+00",7.3,9.3,,63.7,303,-22,36,1023.98,66.6,295.1
"2016-10-12 19:17:20+00",8.0,9.0,,63.7,352,2,8,1024.15,66.2,133
"2016-10-12 19:22:20+00",7.3,9.3,,63.6,316,18,-15,1024.25,65.8,176.8
"2016-10-12 19:27:20+00",8.1,9.1,,63.7,352,28,22,1024.11,65.7,202.7
"2016-10-12 19:32:20+00",8.6,9.6,,63.7,381,-39,-11,1023.92,65.8,125
"2016-10-12 19:37:20+00",6.9,7.9,,63.8,299,-1,25,1023.89,66,270.3
"2016-10-12 19:42:20+00",8.4,9.4,,63.8,352,5,2,1023.72,66.3,227.7
"2016-10-12 19:47:20+00",8.2,9.2,,63.8,349,-23,43,1023.71,66.2,241.8
"2016-10-12 19:52:20+00",9.2,10.2,,63.7,404,23,-9,1023.65,66.1,188.3
"2016-10-12 19:57:20+00",8.3,9.3,,63.7,360,6,15,1023.56,65.9,195.3
"2016-10-12 20:02:20+00",7.3,8.3,,63.7,320,-44,2,1023.61,65.8,136.3
"2016-10-12 20:07:20+00",6.7,8.7,,63.7,283,-60,-5,1023.51,65.4,167.6
"2016-10-12 20:12:20+00",8.1,9.1,,64,346,-63,5,1023.49,65.6,140.3
"2016-10-12 20:17:20+00",8.9,9.9,,64,380,-97,18,1023.48,65.3,123.1
"2016-10-12 20:22:20+00",7.7,8.7,,63.8,323,-111,-6,1023.49,65,72.3
"2016-10-12 20:27:20+00",8.9,8.9,,63.8,389,-76,14,1023.57,64.8,105.8
"2016-10-12 20:32:20+00",6.8,8.8,,64,295,-44,45,1023.44,64.8,187
"2016-10-12 20:37:20+00",8.1,9.1,,64,353,44,17,1023.4,65.2,146.6
"2016-10-12 20:42:20+00",6.4,8.4,,64.1,286,-32,3,1023.33,65.3,124.4
"2016-10-12 20:47:20+00",9.4,10.4,,64.1,414,7,26,1023.14,65.3,123.5
"2016-10-12 20:52:20+00",7.6,8.6,,63.9,336,5,-4,1023.15,65.1,134
"2016-10-12 20:57:20+00",8.6,10.6,,64.1,381,21,12,1023.1,65.1,125.6
"2016-10-12 21:02:20+00",9.0,10.0,,63.9,392,-58,0,1023.09,64.9,110.4
"2016-10-12 21:07:20+00",7.4,8.4,,63.8,314,-67,-3,1023.03,64.6,106.1
"2016-10-12 21:12:20+00",7.6,8.6,,63.9,319,-113,34,1023.04,64.7,62.2
"2016-10-12 21:17:20+00",8.7,9.7,,63.9,384,-1,7,1023.12,64.5,75.5
"2016-10-12 21:22:20+00",8.3,9.3,,63.8,352,-108,6,1022.97,64.4,63.9
"2016-10-12 21:27:20+00",8.7,9.7,,63.7,385,-12,9,1023.01,64.3,54.2
"2016-10-12 21:32:20+00",7.3,8.3,,63.7,309,-76,24,1023.04,64.1,31
"2016-10-12 21:37:20+00",8.2,9.2,,63.5,361,2,8,1022.99,63.9,34
"2016-10-12 21:42:20+00",7.1,8.1,,63.6,310,-12,27,1022.98,63.8,17.5
"2016-10-12 21:47:20+00",8.6,9.6,,63.5,383,-25,7,1022.81,63.6,0
"2016-10-12 21:52:20+00",9.2,10.2,,63.4,403,7,14,1022.77,63.4,4.3
"2016-10-12 21:57:20+00",9.0,10.0,,63.3,396,-32,9,1022.7,63.1,0.2
"2016-10-12 22:02:20+00",10.1,12.1,,63.2,448,-43,5,1022.73,62.8,0
"2016-10-12 22:07:20+00",7.8,8.8,,63.2,337,-54,6,1022.84,62.7,0
"2016-10-12 22:12:20+00",8.7,9.7,,63.1,390,-61,2,1022.78,62.4,0
"2016-10-12 22:17:20+00",7.9,8.9,,62.8,341,-104,8,1022.81,62.1,0
"2016-10-12 22:22:20+00",8.6,9.6,,62.9,360,-132,0,1022.93,61.9,0
"2016-10-12 22:27:20+00",7.6,8.6,,62.8,310,-106,-2,1022.9,61.7,0
"2016-10-12 22:32:20+00",8.6,9.6,,62.8,372,-74,3,1022.9,61.5,0
"2016-10-12 22:37:20+00",9.0,10.0,,62.8,390,-93,4,1022.85,61.3,0
"2016-10-12 22:42:20+00",6.8,7.8,,62.7,288,-64,6,1022.83,61.3,0
"2016-10-12 22:47:20+00",6.7,7.7,,62.6,282,-60,3,1022.97,61,0
"2016-10-12 22:52:20+00",7.9,8.9,,62.7,341,-62,10,1022.87,60.8,0
"2016-10-12 22:57:20+00",8.4,8.4,,62.6,366,-47,13,1022.84,60.7,0
"2016-10-12 23:02:20+00",8.5,8.5,,62.6,375,-44,16,1022.84,60.6,0
"2016-10-12 23:07:20+00",8.3,9.3,,62.7,365,-51,12,1022.84,60.6,0
"2016-10-12 23:12:20+00",8.3,9.3,,62.7,359,-63,16,1022.78,60.6,0
"2016-10-12 23:17:20+00",7.6,8.6,,62.5,333,-12,14,1022.93,60.5,0
"2016-10-12 23:22:20+00",7.8,8.8,,62.6,346,-37,10,1022.77,60.6,0
"2016-10-12 23:27:20+00",8.0,9.0,,62.5,351,-13,11,1022.71,60.5,0
"2016-10-12 23:32:20+00",8.0,9.0,,62.5,346,-40,18,1022.69,60.4,0
"2016-10-12 23:37:20+00",7.8,8.8,,62.4,340,-57,17,1022.66,60.2,0
"2016-10-12 23:42:20+00",7.8,8.8,,62.3,335,-54,11,1022.6,60.2,0
"2016-10-12 23:47:20+00",8.6,9.6,,62.4,378,-57,9,1022.61,60.2,0
"2016-10-12 23:52:20+00",8.0,8.0,,62.4,339,-102,-1,1022.69,60.2,0
"2016-10-12 23:57:20+00",8.3,9.3,,62.4,357,-109,2,1022.76,60.1,0
